Year,Month,Day,Hour,Minute,Value (Times are PST for barometer in hPa)
2023,04,06,00,00,997.16
2023,04,06,00,01,997.12
2023,04,06,00,02,997.16
2023,04,06,00,03,997.19
2023,04,06,00,04,997.22
2023,04,06,00,05,997.22
2023,04,06,00,06,997.19
2023,04,06,00,07,997.16
2023,04,06,00,08,997.16
2023,04,06,00,09,997.12
2023,04,06,00,10,997.12
2023,04,06,00,11,997.19
2023,04,06,00,12,997.12
2023,04,06,00,13,997.16
2023,04,06,00,14,997.12
2023,04,06,00,15,997.12
2023,04,06,00,16,997.09
2023,04,06,00,17,997.09
2023,04,06,00,18,997.09
2023,04,06,00,19,997.09
2023,04,06,00,20,997.05
2023,04,06,00,21,997.02
2023,04,06,00,22,997.02
2023,04,06,00,23,997.02
2023,04,06,00,24,997.05
2023,04,06,00,25,996.99
2023,04,06,00,26,997.05
2023,04,06,00,27,997.02
2023,04,06,00,28,996.99
2023,04,06,00,29,997.02
2023,04,06,00,30,997.02
2023,04,06,00,31,996.99
2023,04,06,00,32,996.99
2023,04,06,00,33,996.95
2023,04,06,00,34,996.99
2023,04,06,00,35,996.99
2023,04,06,00,36,996.92
2023,04,06,00,37,996.95
2023,04,06,00,38,996.92
2023,04,06,00,39,996.89
2023,04,06,00,40,996.89
2023,04,06,00,41,996.89
2023,04,06,00,42,996.92
2023,04,06,00,43,996.92
2023,04,06,00,44,996.92
2023,04,06,00,45,996.85
2023,04,06,00,46,996.92
2023,04,06,00,47,996.89
2023,04,06,00,48,996.89
2023,04,06,00,49,996.92
2023,04,06,00,50,996.89
2023,04,06,00,51,996.92
2023,04,06,00,52,996.85
2023,04,06,00,53,996.85
2023,04,06,00,54,996.85
2023,04,06,00,55,996.85
2023,04,06,00,56,996.89
2023,04,06,00,57,996.89
2023,04,06,00,58,996.89
2023,04,06,00,59,996.92
2023,04,06,01,00,996.85
2023,04,06,01,01,996.85
2023,04,06,01,02,996.85
2023,04,06,01,03,996.85
2023,04,06,01,04,996.85
2023,04,06,01,05,996.82
2023,04,06,01,06,996.78
2023,04,06,01,07,996.78
2023,04,06,01,08,996.75
2023,04,06,01,09,996.75
2023,04,06,01,10,996.75
2023,04,06,01,11,996.68
2023,04,06,01,12,996.68
2023,04,06,01,13,996.68
2023,04,06,01,14,996.75
2023,04,06,01,15,996.68
2023,04,06,01,16,996.75
2023,04,06,01,17,996.68
2023,04,06,01,18,996.65
2023,04,06,01,19,996.65
2023,04,06,01,20,996.68
2023,04,06,01,21,996.65
2023,04,06,01,22,996.68
2023,04,06,01,23,996.65
2023,04,06,01,24,996.61
2023,04,06,01,25,996.65
2023,04,06,01,26,996.61
2023,04,06,01,27,996.55
2023,04,06,01,28,996.58
2023,04,06,01,29,996.55
2023,04,06,01,30,996.58
2023,04,06,01,31,996.58
2023,04,06,01,32,996.55
2023,04,06,01,33,996.55
2023,04,06,01,34,996.51
2023,04,06,01,35,996.55
2023,04,06,01,36,996.55
2023,04,06,01,37,996.51
2023,04,06,01,38,996.51
2023,04,06,01,39,996.51
2023,04,06,01,40,996.51
2023,04,06,01,41,996.55
2023,04,06,01,42,996.48
2023,04,06,01,43,996.51
2023,04,06,01,44,996.51
2023,04,06,01,45,996.45
2023,04,06,01,46,996.48
2023,04,06,01,47,996.45
2023,04,06,01,48,996.48
2023,04,06,01,49,996.45
2023,04,06,01,50,996.41
2023,04,06,01,51,996.41
2023,04,06,01,52,996.41
2023,04,06,01,53,996.45
2023,04,06,01,54,996.45
2023,04,06,01,55,996.41
2023,04,06,01,56,996.41
2023,04,06,01,57,996.41
2023,04,06,01,58,996.38
2023,04,06,01,59,996.38
2023,04,06,02,00,996.45
2023,04,06,02,01,996.41
2023,04,06,02,02,996.38
2023,04,06,02,03,996.34
2023,04,06,02,04,996.34
2023,04,06,02,05,996.31
2023,04,06,02,06,996.31
2023,04,06,02,07,996.34
2023,04,06,02,08,996.34
2023,04,06,02,09,996.31
2023,04,06,02,10,996.31
2023,04,06,02,11,996.28
2023,04,06,02,12,996.24
2023,04,06,02,13,996.17
2023,04,06,02,14,996.17
2023,04,06,02,15,996.17
2023,04,06,02,16,996.21
2023,04,06,02,17,996.21
2023,04,06,02,18,996.21
2023,04,06,02,19,996.14
2023,04,06,02,20,996.14
2023,04,06,02,21,996.17
2023,04,06,02,22,996.17
2023,04,06,02,23,996.17
2023,04,06,02,24,996.14
2023,04,06,02,25,996.14
2023,04,06,02,26,996.17
2023,04,06,02,27,996.17
2023,04,06,02,28,996.17
2023,04,06,02,29,996.14
2023,04,06,02,30,996.21
2023,04,06,02,31,996.14
2023,04,06,02,32,996.14
2023,04,06,02,33,996.14
2023,04,06,02,34,996.14
2023,04,06,02,35,996.14
2023,04,06,02,36,996.14
2023,04,06,02,37,996.14
2023,04,06,02,38,996.14
2023,04,06,02,39,996.11
2023,04,06,02,40,996.07
2023,04,06,02,41,996.07
2023,04,06,02,42,996.04
2023,04,06,02,43,996.04
2023,04,06,02,44,996.07
2023,04,06,02,45,996.01
2023,04,06,02,46,996.04
2023,04,06,02,47,996.01
2023,04,06,02,48,996.01
2023,04,06,02,49,996.04
2023,04,06,02,50,996.04
2023,04,06,02,51,996.01
2023,04,06,02,52,996.01
2023,04,06,02,53,996.04
2023,04,06,02,54,996.01
2023,04,06,02,55,996.01
2023,04,06,02,56,996.04
2023,04,06,02,57,995.94
2023,04,06,02,58,996.01
2023,04,06,02,59,995.94
2023,04,06,03,00,996.01
2023,04,06,03,01,995.94
2023,04,06,03,02,995.94
2023,04,06,03,03,995.94
2023,04,06,03,04,996.01
2023,04,06,03,05,996.01
2023,04,06,03,06,995.94
2023,04,06,03,07,995.94
2023,04,06,03,08,995.94
2023,04,06,03,09,995.94
2023,04,06,03,10,995.87
2023,04,06,03,11,995.90
2023,04,06,03,12,995.90
2023,04,06,03,13,995.90
2023,04,06,03,14,995.84
2023,04,06,03,15,995.87
2023,04,06,03,16,995.84
2023,04,06,03,17,995.84
2023,04,06,03,18,995.84
2023,04,06,03,19,995.84
2023,04,06,03,20,995.77
2023,04,06,03,21,995.80
2023,04,06,03,22,995.77
2023,04,06,03,23,995.80
2023,04,06,03,24,995.77
2023,04,06,03,25,995.80
2023,04,06,03,26,995.77
2023,04,06,03,27,995.77
2023,04,06,03,28,995.80
2023,04,06,03,29,995.73
2023,04,06,03,30,995.73
2023,04,06,03,31,995.70
2023,04,06,03,32,995.67
2023,04,06,03,33,995.70
2023,04,06,03,34,995.67
2023,04,06,03,35,995.70
2023,04,06,03,36,995.70
2023,04,06,03,37,995.67
2023,04,06,03,38,995.67
2023,04,06,03,39,995.63
2023,04,06,03,40,995.67
2023,04,06,03,41,995.67
2023,04,06,03,42,995.67
2023,04,06,03,43,995.70
2023,04,06,03,44,995.63
2023,04,06,03,45,995.67
2023,04,06,03,46,995.63
2023,04,06,03,47,995.60
2023,04,06,03,48,995.56
2023,04,06,03,49,995.56
2023,04,06,03,50,995.53
2023,04,06,03,51,995.53
2023,04,06,03,52,995.50
2023,04,06,03,53,995.50
2023,04,06,03,54,995.46
2023,04,06,03,55,995.46
2023,04,06,03,56,995.46
2023,04,06,03,57,995.43
2023,04,06,03,58,995.43
2023,04,06,03,59,995.46
2023,04,06,04,00,995.43
2023,04,06,04,01,995.46
2023,04,06,04,02,995.43
2023,04,06,04,03,995.46
2023,04,06,04,04,995.43
2023,04,06,04,05,995.43
2023,04,06,04,06,995.40
2023,04,06,04,07,995.43
2023,04,06,04,08,995.40
2023,04,06,04,09,995.40
2023,04,06,04,10,995.33
2023,04,06,04,11,995.36
2023,04,06,04,12,995.36
2023,04,06,04,13,995.33
2023,04,06,04,14,995.36
2023,04,06,04,15,995.33
2023,04,06,04,16,995.29
2023,04,06,04,17,995.29
2023,04,06,04,18,995.26
2023,04,06,04,19,995.29
2023,04,06,04,20,995.26
2023,04,06,04,21,995.26
2023,04,06,04,22,995.23
2023,04,06,04,23,995.19
2023,04,06,04,24,995.19
2023,04,06,04,25,995.19
2023,04,06,04,26,995.19
2023,04,06,04,27,995.12
2023,04,06,04,28,995.19
2023,04,06,04,29,995.09
2023,04,06,04,30,995.12
2023,04,06,04,31,995.06
2023,04,06,04,32,995.12
2023,04,06,04,33,995.09
2023,04,06,04,34,995.06
2023,04,06,04,35,995.09
2023,04,06,04,36,995.06
2023,04,06,04,37,995.06
2023,04,06,04,38,995.06
2023,04,06,04,39,995.02
2023,04,06,04,40,995.06
2023,04,06,04,41,995.02
2023,04,06,04,42,995.02
2023,04,06,04,43,995.02
2023,04,06,04,44,994.99
2023,04,06,04,45,995.02
2023,04,06,04,46,994.99
2023,04,06,04,47,994.99
2023,04,06,04,48,995.02
2023,04,06,04,49,995.02
2023,04,06,04,50,994.99
2023,04,06,04,51,994.99
2023,04,06,04,52,994.96
2023,04,06,04,53,994.96
2023,04,06,04,54,994.96
2023,04,06,04,55,994.96
2023,04,06,04,56,994.92
2023,04,06,04,57,994.92
2023,04,06,04,58,994.89
2023,04,06,04,59,994.92
2023,04,06,05,00,994.89
2023,04,06,05,01,994.89
2023,04,06,05,02,994.89
2023,04,06,05,03,994.89
2023,04,06,05,04,994.89
2023,04,06,05,05,994.89
2023,04,06,05,06,994.82
2023,04,06,05,07,994.85
2023,04,06,05,08,994.85
2023,04,06,05,09,994.85
2023,04,06,05,10,994.82
2023,04,06,05,11,994.82
2023,04,06,05,12,994.85
2023,04,06,05,13,994.85
2023,04,06,05,14,994.79
2023,04,06,05,15,994.79
2023,04,06,05,16,994.75
2023,04,06,05,17,994.75
2023,04,06,05,18,994.75
2023,04,06,05,19,994.75
2023,04,06,05,20,994.75
2023,04,06,05,21,994.75
2023,04,06,05,22,994.75
2023,04,06,05,23,994.75
2023,04,06,05,24,994.72
2023,04,06,05,25,994.72
2023,04,06,05,26,994.72
2023,04,06,05,27,994.72
2023,04,06,05,28,994.72
2023,04,06,05,29,994.75
2023,04,06,05,30,994.72
2023,04,06,05,31,994.68
2023,04,06,05,32,994.68
2023,04,06,05,33,994.75
2023,04,06,05,34,994.68
2023,04,06,05,35,994.65
2023,04,06,05,36,994.65
2023,04,06,05,37,994.68
2023,04,06,05,38,994.68
2023,04,06,05,39,994.62
2023,04,06,05,40,994.62
2023,04,06,05,41,994.62
2023,04,06,05,42,994.62
2023,04,06,05,43,994.58
2023,04,06,05,44,994.62
2023,04,06,05,45,994.58
2023,04,06,05,46,994.58
2023,04,06,05,47,994.52
2023,04,06,05,48,994.55
2023,04,06,05,49,994.48
2023,04,06,05,50,994.52
2023,04,06,05,51,994.41
2023,04,06,05,52,994.48
2023,04,06,05,53,994.45
2023,04,06,05,54,994.48
2023,04,06,05,55,994.45
2023,04,06,05,56,994.41
2023,04,06,05,57,994.45
2023,04,06,05,58,994.45
2023,04,06,05,59,994.45
2023,04,06,06,00,994.41
2023,04,06,06,01,994.41
2023,04,06,06,02,994.41
2023,04,06,06,03,994.41
2023,04,06,06,04,994.41
2023,04,06,06,05,994.41
2023,04,06,06,06,994.38
2023,04,06,06,07,994.41
2023,04,06,06,08,994.38
2023,04,06,06,09,994.38
2023,04,06,06,10,994.41
2023,04,06,06,11,994.38
2023,04,06,06,12,994.38
2023,04,06,06,13,994.31
2023,04,06,06,14,994.31
2023,04,06,06,15,994.31
2023,04,06,06,16,994.31
2023,04,06,06,17,994.28
2023,04,06,06,18,994.31
2023,04,06,06,19,994.31
2023,04,06,06,20,994.28
2023,04,06,06,21,994.28
2023,04,06,06,22,994.28
2023,04,06,06,23,994.24
2023,04,06,06,24,994.21
2023,04,06,06,25,994.21
2023,04,06,06,26,994.24
2023,04,06,06,27,994.21
2023,04,06,06,28,994.14
2023,04,06,06,29,994.14
2023,04,06,06,30,994.14
2023,04,06,06,31,994.14
2023,04,06,06,32,994.14
2023,04,06,06,33,994.11
2023,04,06,06,34,994.18
2023,04,06,06,35,994.11
2023,04,06,06,36,994.07
2023,04,06,06,37,994.07
2023,04,06,06,38,994.04
2023,04,06,06,39,994.07
2023,04,06,06,40,994.07
2023,04,06,06,41,994.07
2023,04,06,06,42,994.07
2023,04,06,06,43,994.01
2023,04,06,06,44,994.01
2023,04,06,06,45,994.04
2023,04,06,06,46,994.01
2023,04,06,06,47,994.01
2023,04,06,06,48,994.01
2023,04,06,06,49,994.01
2023,04,06,06,50,994.01
2023,04,06,06,51,993.97
2023,04,06,06,52,994.01
2023,04,06,06,53,993.94
2023,04,06,06,54,993.91
2023,04,06,06,55,993.91
2023,04,06,06,56,993.94
2023,04,06,06,57,993.91
2023,04,06,06,58,993.94
2023,04,06,06,59,993.91
2023,04,06,07,00,993.94
2023,04,06,07,01,993.91
2023,04,06,07,02,993.80
2023,04,06,07,03,993.84
2023,04,06,07,04,993.84
2023,04,06,07,05,993.84
2023,04,06,07,06,993.80
2023,04,06,07,07,993.77
2023,04,06,07,08,993.77
2023,04,06,07,09,993.80
2023,04,06,07,10,993.77
2023,04,06,07,11,993.77
2023,04,06,07,12,993.77
2023,04,06,07,13,993.77
2023,04,06,07,14,993.77
2023,04,06,07,15,993.74
2023,04,06,07,16,993.77
2023,04,06,07,17,993.74
2023,04,06,07,18,993.74
2023,04,06,07,19,993.74
2023,04,06,07,20,993.70
2023,04,06,07,21,993.74
2023,04,06,07,22,993.74
2023,04,06,07,23,993.67
2023,04,06,07,24,993.70
2023,04,06,07,25,993.67
2023,04,06,07,26,993.70
2023,04,06,07,27,993.67
2023,04,06,07,28,993.67
2023,04,06,07,29,993.67
2023,04,06,07,30,993.63
2023,04,06,07,31,993.63
2023,04,06,07,32,993.67
2023,04,06,07,33,993.67
2023,04,06,07,34,993.63
2023,04,06,07,35,993.57
2023,04,06,07,36,993.60
2023,04,06,07,37,993.53
2023,04,06,07,38,993.53
2023,04,06,07,39,993.53
2023,04,06,07,40,993.53
2023,04,06,07,41,993.50
2023,04,06,07,42,993.50
2023,04,06,07,43,993.50
2023,04,06,07,44,993.47
2023,04,06,07,45,993.47
2023,04,06,07,46,993.43
2023,04,06,07,47,993.47
2023,04,06,07,48,993.40
2023,04,06,07,49,993.43
2023,04,06,07,50,993.19
2023,04,06,07,51,993.23
2023,04,06,07,52,993.40
2023,04,06,07,53,993.40
2023,04,06,07,54,993.43
2023,04,06,07,55,993.36
2023,04,06,07,56,993.36
2023,04,06,07,57,993.36
2023,04,06,07,58,993.33
2023,04,06,07,59,993.33
2023,04,06,08,00,993.33
2023,04,06,08,01,993.36
2023,04,06,08,02,993.30
2023,04,06,08,03,993.30
2023,04,06,08,04,993.30
2023,04,06,08,05,993.30
2023,04,06,08,06,993.26
2023,04,06,08,07,993.23
2023,04,06,08,08,993.23
2023,04,06,08,09,993.19
2023,04,06,08,10,993.23
2023,04,06,08,11,993.23
2023,04,06,08,12,993.19
2023,04,06,08,13,993.23
2023,04,06,08,14,993.23
2023,04,06,08,15,993.19
2023,04,06,08,16,993.16
2023,04,06,08,17,993.13
2023,04,06,08,18,993.13
2023,04,06,08,19,993.13
2023,04,06,08,20,993.13
2023,04,06,08,21,993.13
2023,04,06,08,22,993.09
2023,04,06,08,23,993.09
2023,04,06,08,24,993.06
2023,04,06,08,25,993.06
2023,04,06,08,26,993.06
2023,04,06,08,27,993.06
2023,04,06,08,28,993.03
2023,04,06,08,29,993.06
2023,04,06,08,30,993.06
2023,04,06,08,31,993.03
2023,04,06,08,32,992.99
2023,04,06,08,33,993.03
2023,04,06,08,34,993.03
2023,04,06,08,35,993.03
2023,04,06,08,36,992.99
2023,04,06,08,37,992.99
2023,04,06,08,38,992.96
2023,04,06,08,39,992.92
2023,04,06,08,40,992.92
2023,04,06,08,41,992.92
2023,04,06,08,42,992.89
2023,04,06,08,43,992.86
2023,04,06,08,44,992.86
2023,04,06,08,45,992.89
2023,04,06,08,46,992.86
2023,04,06,08,47,992.89
2023,04,06,08,48,992.89
2023,04,06,08,49,992.89
2023,04,06,08,50,992.89
2023,04,06,08,51,992.89
2023,04,06,08,52,992.86
2023,04,06,08,53,992.86
2023,04,06,08,54,992.86
2023,04,06,08,55,992.86
2023,04,06,08,56,992.89
2023,04,06,08,57,992.86
2023,04,06,08,58,992.86
2023,04,06,08,59,992.79
2023,04,06,09,00,992.75
2023,04,06,09,01,992.75
2023,04,06,09,02,992.72
2023,04,06,09,03,992.75
2023,04,06,09,04,992.72
2023,04,06,09,05,992.72
2023,04,06,09,06,992.75
2023,04,06,09,07,992.69
2023,04,06,09,08,992.72
2023,04,06,09,09,992.69
2023,04,06,09,10,992.69
2023,04,06,09,11,992.65
2023,04,06,09,12,992.69
2023,04,06,09,13,992.65
2023,04,06,09,14,992.62
2023,04,06,09,15,992.62
2023,04,06,09,16,992.62
2023,04,06,09,17,992.55
2023,04,06,09,18,992.58
2023,04,06,09,19,992.52
2023,04,06,09,20,992.55
2023,04,06,09,21,992.52
2023,04,06,09,22,992.52
2023,04,06,09,23,992.52
2023,04,06,09,24,992.48
2023,04,06,09,25,992.48
2023,04,06,09,26,992.48
2023,04,06,09,27,992.42
2023,04,06,09,28,992.42
2023,04,06,09,29,992.42
2023,04,06,09,30,992.35
2023,04,06,09,31,992.38
2023,04,06,09,32,992.38
2023,04,06,09,33,992.38
2023,04,06,09,34,992.31
2023,04,06,09,35,992.31
2023,04,06,09,36,992.35
2023,04,06,09,37,992.35
2023,04,06,09,38,992.31
2023,04,06,09,39,992.28
2023,04,06,09,40,992.31
2023,04,06,09,41,992.25
2023,04,06,09,42,992.28
2023,04,06,09,43,992.21
2023,04,06,09,44,992.21
2023,04,06,09,45,992.18
2023,04,06,09,46,992.18
2023,04,06,09,47,992.14
2023,04,06,09,48,992.18
2023,04,06,09,49,992.14
2023,04,06,09,50,992.14
2023,04,06,09,51,992.08
2023,04,06,09,52,992.11
2023,04,06,09,53,992.08
2023,04,06,09,54,992.04
2023,04,06,09,55,992.04
2023,04,06,09,56,992.04
2023,04,06,09,57,992.01
2023,04,06,09,58,992.04
2023,04,06,09,59,992.01
2023,04,06,10,00,992.01
2023,04,06,10,01,991.94
2023,04,06,10,02,992.01
2023,04,06,10,03,991.94
2023,04,06,10,04,991.91
2023,04,06,10,05,991.91
2023,04,06,10,06,991.91
2023,04,06,10,07,991.87
2023,04,06,10,08,991.87
2023,04,06,10,09,991.84
2023,04,06,10,10,991.77
2023,04,06,10,11,991.81
2023,04,06,10,12,991.81
2023,04,06,10,13,991.81
2023,04,06,10,14,991.77
2023,04,06,10,15,991.77
2023,04,06,10,16,991.74
2023,04,06,10,17,991.77
2023,04,06,10,18,991.70
2023,04,06,10,19,991.70
2023,04,06,10,20,991.67
2023,04,06,10,21,991.70
2023,04,06,10,22,991.67
2023,04,06,10,23,991.67
2023,04,06,10,24,991.67
2023,04,06,10,25,991.67
2023,04,06,10,26,991.64
2023,04,06,10,27,991.64
2023,04,06,10,28,991.60
2023,04,06,10,29,991.57
2023,04,06,10,30,991.57
2023,04,06,10,31,991.53
2023,04,06,10,32,991.57
2023,04,06,10,33,991.50
2023,04,06,10,34,991.53
2023,04,06,10,35,991.50
2023,04,06,10,36,991.50
2023,04,06,10,37,991.50
2023,04,06,10,38,991.47
2023,04,06,10,39,991.47
2023,04,06,10,40,991.43
2023,04,06,10,41,991.47
2023,04,06,10,42,991.43
2023,04,06,10,43,991.40
2023,04,06,10,44,991.43
2023,04,06,10,45,991.40
2023,04,06,10,46,991.37
2023,04,06,10,47,991.37
2023,04,06,10,48,991.33
2023,04,06,10,49,991.33
2023,04,06,10,50,991.30
2023,04,06,10,51,991.30
2023,04,06,10,52,991.23
2023,04,06,10,53,991.23
2023,04,06,10,54,991.23
2023,04,06,10,55,991.20
2023,04,06,10,56,991.23
2023,04,06,10,57,991.23
2023,04,06,10,58,991.23
2023,04,06,10,59,991.20
2023,04,06,11,00,991.20
2023,04,06,11,01,991.20
2023,04,06,11,02,991.16
2023,04,06,11,03,991.13
2023,04,06,11,04,991.16
2023,04,06,11,05,991.13
2023,04,06,11,06,991.13
2023,04,06,11,07,991.13
2023,04,06,11,08,991.13
2023,04,06,11,09,991.09
2023,04,06,11,10,991.13
2023,04,06,11,11,991.09
2023,04,06,11,12,991.06
2023,04,06,11,13,991.09
2023,04,06,11,14,991.06
2023,04,06,11,15,991.09
2023,04,06,11,16,991.06
2023,04,06,11,17,991.09
2023,04,06,11,18,991.06
2023,04,06,11,19,990.99
2023,04,06,11,20,990.99
2023,04,06,11,21,990.99
2023,04,06,11,22,990.96
2023,04,06,11,23,990.96
2023,04,06,11,24,990.93
2023,04,06,11,25,990.89
2023,04,06,11,26,990.89
2023,04,06,11,27,990.89
2023,04,06,11,28,990.89
2023,04,06,11,29,990.86
2023,04,06,11,30,990.86
2023,04,06,11,31,990.82
2023,04,06,11,32,990.82
2023,04,06,11,33,990.82
2023,04,06,11,34,990.72
2023,04,06,11,35,990.72
2023,04,06,11,36,990.72
2023,04,06,11,37,990.69
2023,04,06,11,38,990.72
2023,04,06,11,39,990.72
2023,04,06,11,40,990.69
2023,04,06,11,41,990.65
2023,04,06,11,42,990.65
2023,04,06,11,43,990.65
2023,04,06,11,44,990.65
2023,04,06,11,45,990.65
2023,04,06,11,46,990.59
2023,04,06,11,47,990.62
2023,04,06,11,48,990.55
2023,04,06,11,49,990.55
2023,04,06,11,50,990.52
2023,04,06,11,51,990.52
2023,04,06,11,52,990.55
2023,04,06,11,53,990.55
2023,04,06,11,54,990.52
2023,04,06,11,55,990.55
2023,04,06,11,56,990.49
2023,04,06,11,57,990.45
2023,04,06,11,58,990.49
2023,04,06,11,59,990.45
2023,04,06,12,00,990.38
2023,04,06,12,01,990.38
2023,04,06,12,02,990.45
2023,04,06,12,03,990.38
2023,04,06,12,04,990.38
2023,04,06,12,05,990.38
2023,04,06,12,06,990.35
2023,04,06,12,07,990.35
2023,04,06,12,08,990.35
2023,04,06,12,09,990.28
2023,04,06,12,10,990.32
2023,04,06,12,11,990.28
2023,04,06,12,12,990.28
2023,04,06,12,13,990.28
2023,04,06,12,14,990.25
2023,04,06,12,15,990.25
2023,04,06,12,16,990.25
2023,04,06,12,17,990.25
2023,04,06,12,18,990.18
2023,04,06,12,19,990.15
2023,04,06,12,20,990.18
2023,04,06,12,21,990.15
2023,04,06,12,22,990.11
2023,04,06,12,23,990.11
2023,04,06,12,24,990.08
2023,04,06,12,25,990.08
2023,04,06,12,26,990.04
2023,04,06,12,27,990.08
2023,04,06,12,28,990.08
2023,04,06,12,29,990.04
2023,04,06,12,30,990.04
2023,04,06,12,31,990.08
2023,04,06,12,32,990.04
2023,04,06,12,33,990.04
2023,04,06,12,34,990.04
2023,04,06,12,35,990.01
2023,04,06,12,36,990.08
2023,04,06,12,37,990.08
2023,04,06,12,38,990.08
2023,04,06,12,39,990.15
2023,04,06,12,40,990.04
2023,04,06,12,41,990.08
2023,04,06,12,42,990.08
2023,04,06,12,43,990.08
2023,04,06,12,44,990.08
2023,04,06,12,45,990.04
2023,04,06,12,46,990.04
2023,04,06,12,47,990.04
2023,04,06,12,48,990.04
2023,04,06,12,49,990.01
2023,04,06,12,50,990.01
2023,04,06,12,51,990.01
2023,04,06,12,52,989.94
2023,04,06,12,53,989.94
2023,04,06,12,54,989.84
2023,04,06,12,55,989.91
2023,04,06,12,56,989.84
2023,04,06,12,57,989.88
2023,04,06,12,58,989.84
2023,04,06,12,59,989.84
2023,04,06,13,00,989.84
2023,04,06,13,01,989.81
2023,04,06,13,02,989.77
2023,04,06,13,03,989.77
2023,04,06,13,04,989.74
2023,04,06,13,05,989.77
2023,04,06,13,06,989.77
2023,04,06,13,07,989.81
2023,04,06,13,08,989.74
2023,04,06,13,09,989.74
2023,04,06,13,10,989.74
2023,04,06,13,11,989.74
2023,04,06,13,12,989.71
2023,04,06,13,13,989.71
2023,04,06,13,14,989.71
2023,04,06,13,15,989.74
2023,04,06,13,16,989.67
2023,04,06,13,17,989.71
2023,04,06,13,18,989.67
2023,04,06,13,19,989.71
2023,04,06,13,20,989.74
2023,04,06,13,21,989.64
2023,04,06,13,22,989.64
2023,04,06,13,23,989.60
2023,04,06,13,24,989.57
2023,04,06,13,25,989.54
2023,04,06,13,26,989.57
2023,04,06,13,27,989.54
2023,04,06,13,28,989.57
2023,04,06,13,29,989.57
2023,04,06,13,30,989.57
2023,04,06,13,31,989.54
2023,04,06,13,32,989.54
2023,04,06,13,33,989.54
2023,04,06,13,34,989.50
2023,04,06,13,35,989.50
2023,04,06,13,36,989.50
2023,04,06,13,37,989.50
2023,04,06,13,38,989.47
2023,04,06,13,39,989.50
2023,04,06,13,40,989.44
2023,04,06,13,41,989.44
2023,04,06,13,42,989.40
2023,04,06,13,43,989.44
2023,04,06,13,44,989.44
2023,04,06,13,45,989.40
2023,04,06,13,46,989.37
2023,04,06,13,47,989.33
2023,04,06,13,48,989.37
2023,04,06,13,49,989.33
2023,04,06,13,50,989.33
2023,04,06,13,51,989.33
2023,04,06,13,52,989.30
2023,04,06,13,53,989.33
2023,04,06,13,54,989.30
2023,04,06,13,55,989.30
2023,04,06,13,56,989.27
2023,04,06,13,57,989.27
2023,04,06,13,58,989.23
2023,04,06,13,59,989.20
2023,04,06,14,00,989.20
2023,04,06,14,01,989.16
2023,04,06,14,02,989.16
2023,04,06,14,03,989.13
2023,04,06,14,04,989.13
2023,04,06,14,05,989.13
2023,04,06,14,06,989.13
2023,04,06,14,07,989.16
2023,04,06,14,08,989.16
2023,04,06,14,09,989.20
2023,04,06,14,10,989.16
2023,04,06,14,11,989.23
2023,04,06,14,12,989.16
2023,04,06,14,13,989.16
2023,04,06,14,14,989.16
2023,04,06,14,15,989.16
2023,04,06,14,16,989.13
2023,04,06,14,17,989.13
2023,04,06,14,18,989.13
2023,04,06,14,19,989.13
2023,04,06,14,20,989.10
2023,04,06,14,21,989.06
2023,04,06,14,22,989.03
2023,04,06,14,23,989.03
2023,04,06,14,24,989.00
2023,04,06,14,25,989.00
2023,04,06,14,26,989.00
2023,04,06,14,27,989.03
2023,04,06,14,28,989.00
2023,04,06,14,29,989.00
2023,04,06,14,30,988.96
2023,04,06,14,31,989.00
2023,04,06,14,32,988.93
2023,04,06,14,33,988.93
2023,04,06,14,34,988.93
2023,04,06,14,35,988.93
2023,04,06,14,36,988.93
2023,04,06,14,37,988.86
2023,04,06,14,38,988.89
2023,04,06,14,39,988.86
2023,04,06,14,40,988.86
2023,04,06,14,41,988.86
2023,04,06,14,42,988.83
2023,04,06,14,43,988.83
2023,04,06,14,44,988.79
2023,04,06,14,45,988.83
2023,04,06,14,46,988.72
2023,04,06,14,47,988.76
2023,04,06,14,48,988.72
2023,04,06,14,49,988.69
2023,04,06,14,50,988.72
2023,04,06,14,51,988.69
2023,04,06,14,52,988.66
2023,04,06,14,53,988.62
2023,04,06,14,54,988.66
2023,04,06,14,55,988.62
2023,04,06,14,56,988.59
2023,04,06,14,57,988.59
2023,04,06,14,58,988.62
2023,04,06,14,59,988.52
2023,04,06,15,00,988.52
2023,04,06,15,01,988.59
2023,04,06,15,02,988.52
2023,04,06,15,03,988.52
2023,04,06,15,04,988.52
2023,04,06,15,05,988.55
2023,04,06,15,06,988.52
2023,04,06,15,07,988.49
2023,04,06,15,08,988.49
2023,04,06,15,09,988.49
2023,04,06,15,10,988.45
2023,04,06,15,11,988.49
2023,04,06,15,12,988.49
2023,04,06,15,13,988.42
2023,04,06,15,14,988.52
2023,04,06,15,15,988.42
2023,04,06,15,16,988.42
2023,04,06,15,17,988.39
2023,04,06,15,18,988.35
2023,04,06,15,19,988.39
2023,04,06,15,20,988.39
2023,04,06,15,21,988.35
2023,04,06,15,22,988.39
2023,04,06,15,23,988.39
2023,04,06,15,24,988.35
2023,04,06,15,25,988.35
2023,04,06,15,26,988.35
2023,04,06,15,27,988.28
2023,04,06,15,28,988.28
2023,04,06,15,29,988.25
2023,04,06,15,30,988.25
2023,04,06,15,31,988.22
2023,04,06,15,32,988.25
2023,04,06,15,33,988.15
2023,04,06,15,34,988.15
2023,04,06,15,35,988.11
2023,04,06,15,36,988.15
2023,04,06,15,37,988.11
2023,04,06,15,38,988.11
2023,04,06,15,39,988.08
2023,04,06,15,40,988.05
2023,04,06,15,41,988.05
2023,04,06,15,42,988.05
2023,04,06,15,43,988.01
2023,04,06,15,44,988.01
2023,04,06,15,45,988.01
2023,04,06,15,46,988.01
2023,04,06,15,47,987.98
2023,04,06,15,48,987.98
2023,04,06,15,49,987.98
2023,04,06,15,50,987.95
2023,04,06,15,51,987.98
2023,04,06,15,52,987.95
2023,04,06,15,53,987.95
2023,04,06,15,54,987.95
2023,04,06,15,55,987.98
2023,04,06,15,56,987.95
2023,04,06,15,57,987.91
2023,04,06,15,58,987.91
2023,04,06,15,59,987.88
2023,04,06,16,00,987.91
2023,04,06,16,01,987.88
2023,04,06,16,02,987.88
2023,04,06,16,03,987.88
2023,04,06,16,04,987.84
2023,04,06,16,05,987.81
2023,04,06,16,06,987.84
2023,04,06,16,07,987.84
2023,04,06,16,08,987.84
2023,04,06,16,09,987.84
2023,04,06,16,10,987.84
2023,04,06,16,11,987.84
2023,04,06,16,12,987.84
2023,04,06,16,13,987.84
2023,04,06,16,14,987.81
2023,04,06,16,15,987.81
2023,04,06,16,16,987.81
2023,04,06,16,17,987.78
2023,04,06,16,18,987.81
2023,04,06,16,19,987.78
2023,04,06,16,20,987.81
2023,04,06,16,21,987.81
2023,04,06,16,22,987.81
2023,04,06,16,23,987.81
2023,04,06,16,24,987.84
2023,04,06,16,25,987.78
2023,04,06,16,26,987.81
2023,04,06,16,27,987.78
2023,04,06,16,28,987.74
2023,04,06,16,29,987.67
2023,04,06,16,30,987.71
2023,04,06,16,31,987.67
2023,04,06,16,32,987.67
2023,04,06,16,33,987.64
2023,04,06,16,34,987.61
2023,04,06,16,35,987.64
2023,04,06,16,36,987.57